Provo, UT

5:53 PM MDT on July 27, 2017 (GMT -0600)
Provo Municipal

Weather History for KPVU - October, 2014

Change the Weather History Date:

Monday, October 20, 2014

  Actual Average Record
Temperature  
Mean Temperature 57 °F -  
Max Temperature 75 °F 59 °F 75 °F (2003)
Min Temperature 39 °F 34 °F 28 °F (1996)
Degree Days  
Heating Degree Days 8    
Growing Degree Days 7 (Base 50)    
Moisture  
Dew Point 39 °F    
Average Humidity 58    
Maximum Humidity 81    
Minimum Humidity 25    
Precipitation  
Precipitation 0.00 in - - ()
Sea Level Pressure  
Sea Level Pressure 30.03 in    
Wind  
Wind Speed 3 mph (SSE)    
Max Wind Speed 16 mph    
Max Gust Speed -    
Visibility 12 miles    
Events      
Averages and records for this station are not official NWS values.
T = Trace of Precipitation, MM = Missing Value Source: NWS Daily Summary

Daily Weather History Graph

Daily Weather History Graph

Search for Another Location

Airport or City:

Trip Planner

Search our weather history database for the weather conditions in past years. The results will help you decide how hot, cold, wet, or windy it might be!

Date:

Astronomy

Oct. 20, 2014 Rise Set
Actual Time 7:42 AM MDT 6:39 PM MDT
Civil Twilight 7:15 AM MDT 7:07 PM MDT
Nautical Twilight 6:43 AM MDT 7:38 PM MDT
Astronomical Twilight 6:12 AM MDT 8:10 PM MDT
Moon 4:34 AM MDT (10/20) 5:04 PM MDT (10/20)
Length of Visible Light 11h 51m
Length of Day
10h 56m
Waning Crescent, 10% of the Moon is Illuminated
Oct 20
Waning Crescent
Oct 23
New
Oct 30
First Quarter
Nov 6
Full
Nov 14
Last Quarter

Hourly Weather History & Observations

Time (MDT) Temp. Windchill Dew Point Humidity Pressure Visibility Wind Dir Wind Speed Gust Speed Precip Events Conditions
12:15 AM 48.2 °F - 39.2 °F 71% 30.07 in 10.0 mi Calm Calm - N/A   Clear
12:35 AM 46.4 °F 45.2 °F 39.2 °F 76% 30.07 in 10.0 mi North 3.5 mph - N/A   Clear
12:55 AM 48.2 °F - 39.2 °F 71% 30.07 in 10.0 mi NW 4.6 mph - N/A   Clear
1:15 AM 51.8 °F - 39.2 °F 62% 30.06 in 10.0 mi WNW 3.5 mph - N/A   Clear
1:35 AM 46.4 °F - 37.4 °F 71% 30.06 in 10.0 mi Calm Calm - N/A   Clear
1:55 AM 44.6 °F - 37.4 °F 76% 30.06 in 10.0 mi Calm Calm - N/A   Clear
2:15 AM 44.6 °F 42.2 °F 37.4 °F 76% 30.06 in 10.0 mi ENE 4.6 mph - N/A   Clear
2:35 AM 44.6 °F 43.1 °F 37.4 °F 76% 30.07 in 10.0 mi NE 3.5 mph - N/A   Clear
2:55 AM 44.6 °F - 37.4 °F 76% 30.07 in 10.0 mi Calm Calm - N/A   Clear
3:15 AM 46.4 °F - 39.2 °F 76% 30.07 in 10.0 mi Calm Calm - N/A   Clear
3:35 AM 44.6 °F - 37.4 °F 76% 30.07 in 10.0 mi Calm Calm - N/A   Clear
3:55 AM 44.6 °F - 37.4 °F 76% 30.07 in 10.0 mi Calm Calm - N/A   Clear
4:15 AM 42.8 °F - 35.6 °F 76% 30.06 in 10.0 mi Calm Calm - N/A   Clear
4:35 AM 42.8 °F - 37.4 °F 81% 30.07 in 10.0 mi Calm Calm - N/A   Clear
4:55 AM 42.8 °F - 35.6 °F 76% 30.07 in 10.0 mi Calm Calm - N/A   Clear
5:15 AM 44.6 °F - 35.6 °F 71% 30.07 in 10.0 mi Calm Calm - N/A   Clear
5:35 AM 41.0 °F 39.0 °F 35.6 °F 81% 30.07 in 10.0 mi WNW 3.5 mph - N/A   Clear
5:55 AM 41.0 °F - 35.6 °F 81% 30.08 in 10.0 mi Calm Calm - N/A   Clear
6:15 AM 44.6 °F 43.1 °F 37.4 °F 76% 30.08 in 10.0 mi SSW 3.5 mph - N/A   Clear
6:35 AM 39.2 °F 35.9 °F 33.8 °F 81% 30.09 in 10.0 mi SE 4.6 mph - N/A   Clear
6:47 AM 42.8 °F - 35.6 °F 76% 30.09 in 15.0 mi Calm Calm - N/A   Clear
7:59 AM 42.8 °F - 33.8 °F 70% 30.09 in 15.0 mi Calm Calm - N/A   Partly Cloudy
8:53 AM 46.4 °F - 37.4 °F 71% 30.11 in 15.0 mi Calm Calm - N/A   Partly Cloudy
9:59 AM 55.4 °F - 37.4 °F 51% 30.11 in 15.0 mi Calm Calm - N/A   Scattered Clouds
10:57 AM 60.8 °F - 37.4 °F 42% 30.11 in 15.0 mi Calm Calm - N/A   Partly Cloudy
11:48 AM 66.2 °F - 37.4 °F 35% 30.09 in 15.0 mi ESE 4.6 mph - N/A   Partly Cloudy
12:56 PM 66.2 °F - 42.8 °F 43% 30.06 in 15.0 mi Calm Calm - N/A   Partly Cloudy
1:59 PM 71.6 °F - 42.8 °F 35% 30.02 in 15.0 mi Calm Calm - N/A   Partly Cloudy
2:57 PM 73.4 °F - 39.2 °F 29% 30.00 in 15.0 mi Calm Calm - N/A   Partly Cloudy
3:51 PM 75.2 °F - 37.4 °F 25% 29.99 in 15.0 mi Calm Calm - N/A   Scattered Clouds
4:48 PM 75.2 °F - 37.4 °F 25% 29.97 in 15.0 mi Calm Calm - N/A   Scattered Clouds
5:48 PM 71.6 °F - 44.6 °F 38% 29.96 in 15.0 mi Calm Calm - N/A   Scattered Clouds
6:55 PM 60.8 °F - 42.8 °F 52% 29.94 in 15.0 mi Calm Calm - N/A   Scattered Clouds
7:55 PM 66.2 °F - 46.4 °F 49% 29.95 in 15.0 mi ESE 9.2 mph - N/A   Scattered Clouds
8:49 PM 66.2 °F - 41.0 °F 40% 29.94 in 15.0 mi ESE 9.2 mph - N/A   Scattered Clouds
8:55 PM 66.2 °F - 41.0 °F 40% 29.95 in 10.0 mi SSE 13.8 mph - N/A   Scattered Clouds
9:15 PM 64.4 °F - 42.8 °F 45% 29.95 in 10.0 mi SE 13.8 mph - N/A   Clear
9:35 PM 62.6 °F - 39.2 °F 42% 29.95 in 10.0 mi South 12.7 mph - N/A   Clear
9:55 PM 62.6 °F - 39.2 °F 42% 29.95 in 10.0 mi SSE 13.8 mph - N/A   Clear
10:15 PM 62.6 °F - 39.2 °F 42% 29.95 in 10.0 mi SSE 12.7 mph - N/A   Clear
10:35 PM 62.6 °F - 41.0 °F 45% 29.95 in 10.0 mi SSE 12.7 mph - N/A   Scattered Clouds
10:55 PM 62.6 °F - 41.0 °F 45% 29.95 in 10.0 mi SSE 16.1 mph - N/A   Mostly Cloudy
11:15 PM 62.6 °F - 39.2 °F 42% 29.95 in 10.0 mi SSE 13.8 mph - N/A   Overcast
11:35 PM 62.6 °F - 39.2 °F 42% 29.94 in 10.0 mi SSE 15.0 mph - N/A   Overcast
11:55 PM 62.6 °F - 39.2 °F 42% 29.94 in 10.0 mi South 15.0 mph - N/A   Overcast